FW4773 Weather Reports


Display with metric or nautical units.
time (UTC)temp
F
wind
direction
speed
MPH
gust
MPH
rain 1hr
in
rain 24hr
in
rain mn
in
humidity
%
barometer
mb
20260502130155 51 30 4.0 9.0 0.00 0.00 0.00 69 1016.5
20260502123100 50 319 1.0 9.0 0.00 0.00 0.00 71 1016.4
20260502121548 50 358 3.0 8.0 0.00 0.00 0.00 71 1016.4
20260502114546 50 3 3.0 8.0 0.00 0.00 0.00 71 1016.5
20260502113044 50 311 3.0 6.0 0.00 0.00 0.00 71 1016.6
20260502111543 0 0.0 0.0 0.00 0.00 0.00 1016.5
20260502110033 0 0.0 0.0 0.00 0.00 0.00 1016.3
20260502104535 0 0.0 0.0 0.00 0.00 0.00 1016.1
20260502103021 0 314 2.0 6.0 0.00 0.00 0.00 71 1016.0
20260502101516 50 297 0.0 8.0 0.00 0.00 0.00 72 1015.8
20260502091505 49 61 1.0 3.0 0.00 0.00 0.00 80 1015.0
20260502080104 48 260 0.0 0.0 0.00 0.00 0.00 91 1014.8
20260502070050 50 252 0.0 0.0 0.00 0.00 0.00 90 1014.7
20260502064542 50 252 0.0 0.0 0.00 0.00 0.00 89 1014.5
20260502063037 51 265 0.0 1.0 0.00 0.00 0.00 88 1014.6
20260502061532 51 201 0.0 0.0 0.00 0.00 0.00 87 1014.7
20260502060031 52 201 0.0 0.0 0.00 0.00 0.00 85 1014.7
20260502054525 52 201 0.0 0.0 0.00 0.00 0.00 84 1015.0
20260502053023 53 343 0.0 0.0 0.00 0.00 0.00 82 1014.9
20260502051525 53 289 0.0 0.0 0.00 0.00 0.00 81 1015.1
20260502050016 54 243 0.0 2.0 0.00 0.00 0.00 80 1015.3
20260502044511 54 287 0.0 3.0 0.00 0.00 0.00 78 1015.4
20260502043013 55 167 0.0 3.0 0.00 0.00 0.00 76 1015.0
20260502041503 56 246 1.0 3.0 0.00 0.00 0.00 75 1014.8
20260502040058 56 203 2.0 5.0 0.00 0.00 0.00 74 1014.6
20260502034557 56 201 4.0 10.0 0.00 0.00 0.00 75 1014.5
20260502033103 56 236 4.0 8.0 0.00 0.00 0.00 74 1014.3
20260502031553 57 214 3.0 10.0 0.00 0.00 0.00 74 1014.3
20260502030058 57 176 2.0 8.0 0.00 0.00 0.00 75 1014.1
20260502024548 57 215 4.0 6.0 0.00 0.00 0.00 76 1014.3
20260502023106 57 236 1.0 9.0 0.00 0.00 0.00 77 1014.3
20260502021547 57 192 2.0 8.0 0.00 0.00 0.00 77 1014.4
20260502020043 57 195 5.0 12.0 0.00 0.00 0.00 75 1014.5
20260502014542 57 167 3.0 7.0 0.00 0.00 0.00 72 1014.3
20260502013039 57 136 0.0 5.0 0.00 0.00 0.00 71 1014.2
20260502011538 57 226 2.0 5.0 0.00 0.00 0.00 71 1014.0
20260502010033 57 198 1.0 6.0 0.00 0.00 0.00 71 1013.8
20260502004531 57 162 4.0 7.0 0.00 0.00 0.00 69 1013.4
20260502003030 57 207 3.0 10.0 0.00 0.00 0.00 69 1013.7
20260502001527 57 208 3.0 7.0 0.00 0.00 0.00 68 1013.7
20260502000025 57 179 4.0 9.0 0.00 0.00 0.00 65 1013.5
20260501234524 58 193 3.0 8.0 0.00 0.00 0.00 62 1013.4
20260501233022 59 203 3.0 11.0 0.00 0.00 0.00 61 1013.3
20260501231522 61 212 4.0 14.0 0.00 0.00 0.00 55 1013.2
20260501230017 62 189 4.0 8.0 0.00 0.00 0.00 52 1013.3
20260501224515 62 175 3.0 8.0 0.00 0.00 0.00 53 1013.5
20260501223013 61 131 3.0 8.0 0.00 0.00 0.00 54 1013.5
20260501221514 61 214 3.0 8.0 0.00 0.00 0.00 55 1013.6
20260501220015 62 193 2.0 9.0 0.00 0.00 0.00 53 1013.6
20260501214509 62 205 2.0 9.0 0.00 0.00 0.00 54 1013.5
20260501213005 63 207 4.0 9.0 0.00 0.00 0.00 53 1013.5
20260501211502 62 189 5.0 11.0 0.00 0.00 0.00 52 1013.5
20260501210059 63 192 2.0 9.0 0.00 0.00 0.00 54 1013.4
20260501204557 62 198 5.0 12.0 0.00 0.00 0.00 52 1013.8
20260501203105 63 216 7.0 13.0 0.00 0.00 0.00 51 1013.9
20260501201549 63 150 3.0 9.0 0.00 0.00 0.00 49 1014.0
20260501200045 62 218 4.0 9.0 0.00 0.00 0.00 47 1014.3
20260501194541 62 223 7.0 11.0 0.00 0.00 0.00 47 1014.5
20260501193037 62 196 2.0 7.0 0.00 0.00 0.00 48 1014.6
20260501191532 62 132 3.0 9.0 0.00 0.00 0.00 48 1014.9
20260501190035 61 208 3.0 11.0 0.00 0.00 0.00 49 1015.1
20260501184550 61 129 3.0 8.0 0.00 0.00 0.00 49 1015.2
20260501183026 61 137 2.0 9.0 0.00 0.00 0.00 49 1015.4
20260501181521 62 150 3.0 9.0 0.00 0.00 0.00 50 1015.6
20260501180024 62 133 2.0 6.0 0.00 0.00 0.00 50 1015.7
20260501174514 61 126 2.0 11.0 0.00 0.00 0.00 52 1015.8
20260501173010 60 198 4.0 11.0 0.00 0.00 0.00 51 1016.1
20260501171509 60 217 5.0 9.0 0.00 0.00 0.00 51 1016.2
20260501170004 59 181 2.0 7.0 0.00 0.00 0.00 53 1016.2
20260501164505 58 167 3.0 9.0 0.00 0.00 0.00 53 1016.5
20260501163059 58 148 2.0 7.0 0.00 0.00 0.00 53 1016.6
20260501161601 59 180 5.0 9.0 0.00 0.00 0.00 53 1016.7
20260501160056 59 129 1.0 10.0 0.00 0.00 0.00 55 1016.8
20260501154555 59 150 1.0 10.0 0.00 0.00 0.00 54 1017.1
20260501153050 59 359 0.0 3.0 0.00 0.00 0.00 49 1017.3
20260501151547 57 205 0.0 4.0 0.00 0.00 0.00 48 1017.4
20260501150047 57 211 2.0 3.0 0.00 0.00 0.00 50 1017.5
20260501144545 56 204 3.0 7.0 0.00 0.00 0.00 50 1017.6
20260501143038 57 176 1.0 2.0 0.00 0.00 0.00 53 1017.7
20260501141535 56 210 1.0 3.0 0.00 0.00 0.00 54 1017.7
20260501140034 56 127 1.0 5.0 0.00 0.00 0.00 57 1017.7
20260501134537 55 255 2.0 5.0 0.00 0.00 0.00 58 1017.9
20260501133032 56 83 0.0 3.0 0.00 0.00 0.00 61 1017.9